METEOR 2-17 DEB, 38286

Orbit data source: Space-Track

METEOR 2-17 DEB, 38286 is space debris in LEO originally from a launch on Sat, 30 Jan 1988 UTC launched from the Plesetsk Missile And Space Complex (PKMTR). Debris objects in space refer to the collection of defunct objects orbiting the Earth. Examples of debris include non-operational satellites, rocket bodies, and fragments generated from explosions, collisions, or faulty payload assembly.

Loading next visibility...
Identifier
38286, 1988-005AP
Orbit
LEO
Last TLE update
4 days ago
Origin
Manufacturer
Unknown
Mission
Spacecraft
Bus & Motor
Unknown
Mass
Unknown
Launch date (UTC)
1988-01-30 (37 years ago)
Launch vehicle
Unknown
Launch site
Plesetsk Missile And Space Complex (PKMTR)
Object type
Payload
Rocket body
Debris
Shape & HBR
Unknown
Radar Cross Section
Small (<0.1 m²)

Expand to show TLE details & history

TLE from 4 days ago
0 METEOR 2-17 DEB
1 38286U 88005AP  25125.28077265  .00002706  00000-0  17696-2 0  9996
2 38286  82.5379 232.7180 0045239 354.1653   5.8983 14.01387892685427
Epoch: 2025-05-05T06:44Z
Definitive object data (Epoch: 2025-05-05T06:44:18.756Z)
Latitude
-0.00009°
Longitude
-91.75675°
Altitude
859.212 km
Speed
7.44 km/s
True Right ascension
15h 30m 52s
True Declination
0° 00' 00"
Sunlit
Object was in full shadow at TLE epoch
Visualization TLE readout
Latitude
-9.09139°
Longitude
-96.28054°
Altitude
860.962 km
Speed
7.438 km/s
Apparent Right ascension
13h 00m 52s
Apparent Declination
-59° 53' 10"
Sunlit
Object is in full shadow
Visualization observer readout
Local Sidereal Time
16:31:12
Azimuth
204.885° SW
Elevation
-18.738°
Doppler factor
1
Orbital elements
Apogee altitude
918.984 km
Perigee altitude
853.259 km
Semi-major axis
7,264.258 km
Eccentricity
0.0045239
Inclination
82.5379°
RAAN
232.718°
Arg. of periapsis
354.1653°
True anomaly
5.95187°
Mean anomaly
5.8983°
Eccentric anomaly
5.92506°
Mean motion
3.50555 °/min
BSTAR
0.0017696
Orbital period
102.69 mins
Loading maneuver chart data...
Loading SW <> Apogee altitude chart data...
Loading historical data...
Loading historical data...
Loading historical data...
Loading historical data...
Loading historical data...
Loading historical data...
Loading historical data...

METEOR 2-17 DEB Visibility forecast

Observer location: undefined°, undefined°

Span
Click to sort rows by Start time (UTC) header in descending order
Start Az.
Max El. time (UTC)
Max El. Az.
Max El.
End time (UTC)
End Az.
8 mins2025-05-09 08:33:03.769Z238.407° WSW2025-05-09 08:37:03.769Z292.3° WNW23.654°2025-05-09 08:41:03.769Z340.453° N
8 mins2025-05-09 17:34:03.769Z23.646° NE2025-05-09 17:38:03.769Z76.809° E24.855°2025-05-09 17:42:03.769Z125.567° SE
9 mins2025-05-09 19:17:03.769Z332.689° NNW2025-05-09 19:21:03.769Z280.753° WNW32.55°2025-05-09 19:26:03.769Z206.636° SW
8 mins2025-05-10 06:49:03.769Z152.46° SSE2025-05-10 06:52:03.769Z103.649° ESE34.915°2025-05-10 06:57:03.769Z23.475° NE
|